Location: Newark
(54.8972°N, 99.8189°W)
Time: 00:42:52
(UTC+00:00)

Vanguard 3 - Visible Passes

Search period start: 17 November 2019 00:00
Search period end: 27 November 2019 00:00
Orbit: 508 x 3263 km, 33.3° (Epoch: 14 November)

Date Brightness Start Highest point End Pass type
(mag) Time Alt. Az. Time Alt. Az. Time Alt. Az.
17 Nov 10.4 00:37:15 10° WSW 00:49:53 27° SSW 00:58:51 10° SSE visible
17 Nov 10.6 02:55:46 10° WSW 03:00:24 13° SW 03:04:21 10° SSW visible
17 Nov 10.6 23:20:31 10° WSW 23:35:19 31° S 23:46:04 10° SE visible
18 Nov 10.5 01:36:44 10° WSW 01:46:52 21° SSW 01:54:25 10° S visible
19 Nov 10.6 00:19:15 10° WSW 00:32:44 28° SSW 00:42:31 10° SSE visible
19 Nov 10.7 02:38:13 10° WSW 02:43:21 13° SW 02:47:42 10° SSW visible
19 Nov 10.8 23:02:30 10° WSW 23:18:00 32° S 23:29:39 10° SE visible
20 Nov 10.7 01:18:54 10° WSW 01:29:43 21° SW 01:37:55 10° S visible
21 Nov 10.8 00:01:20 10° WSW 00:15:26 28° SSW 00:26:00 10° SSE visible
21 Nov 11.0 02:20:48 10° WSW 02:26:09 13° SW 02:30:47 10° SSW visible
21 Nov 10.9 22:44:37 10° WSW 23:00:34 33° SSW 23:13:05 10° SE visible
22 Nov 10.9 01:01:08 10° WSW 01:12:25 21° SW 01:21:13 10° S visible
22 Nov 10.9 23:43:31 10° WSW 23:58:02 28° SSW 00:09:20 10° SSE visible
23 Nov 11.2 02:03:34 10° WSW 02:08:49 12° SW 02:13:29 10° SSW visible
24 Nov 11.1 00:43:28 10° WSW 00:54:59 20° SW 01:04:18 10° S visible
24 Nov 11.1 23:25:50 10° WSW 23:40:30 28° SSW 23:52:28 10° SSE visible
25 Nov 11.4 01:46:40 10° WSW 01:51:23 12° SW 01:55:42 10° SW visible
26 Nov 11.3 00:25:58 10° WSW 00:37:28 20° SW 00:47:07 10° S visible
26 Nov 11.3 23:08:18 10° WSW 23:22:53 27° SSW 23:35:22 10° SSE visible
